[[{"header":{"parameterUnit":"m.s-1","parameterCategory":1,"la1":30.2991,"la2":30.254,"lo1":-89.0895,"lo2":-89.0444,"dy":0.0017,"dx":0.0017,"nx":28,"ny":28,"refTime":"2025-02-09T09:00:00:Z","depth":0,"parameterNumber":2,"parameterNumberName":"U-component_of_WINDS"},"data":[0,0,0,0,0,0,0,0,0,0,0,0,0,0,0,0,0,0,0,0,0,0,0,0,0,0,0,0,0,0,0,0,0,0,0,0,0,0,0,0,0,0,0,0,0,0,0,0,0,0,0,0,0,0,0,0,0,0,-1.2945,-1.2946,0,-1.3009,-1.301,-1.3011,-1.3023,-1.3022,-1.3022,-1.3021,-1.309,-1.3092,-1.3094,0,0,0,0,0,0,0,0,0,0,0,0,0,-1.2833,-1.2835,-1.2945,-1.2946,-1.2946,-1.3009,-1.301,-1.3011,-1.3023,-1.3022,-1.3021,-1.3021,-1.3089,-1.3092,-1.3095,0,0,0,0,0,0,0,0,0,0,0,0,0,-1.2888,-1.2836,-1.2945,-1.296,-1.2962,-1.3009,-1.301,-1.3011,-1.3023,-1.3022,-1.3021,-1.302,-1.3088,-1.3091,-1.3095,-1.3133,0,0,-1.3106,-1.3107,0,0,0,0,0,0,0,0,-1.2885,-1.2892,-1.2957,-1.2959,-1.2961,-1.3007,-1.2996,-1.3052,-1.3023,-1.3,-1.3021,-1.302,-1.3063,-1.3069,-1.3083,-1.3136,-1.3139,-1.3106,-1.3108,-1.311,-1.3111,0,0,0,0,0,0,0,-1.2881,-1.289,-1.297,-1.2958,-1.296,-1.2964,-1.2971,-1.3007,-1.3035,-1.3002,-1.3003,-1.301,-1.3064,-1.3079,-1.3084,-1.314,-1.3106,-1.3109,-1.3111,-1.3112,-1.3227,-1.3228,0,0,0,0,0,0,-1.2875,-1.2886,-1.2968,-1.2972,-1.292,-1.2967,-1.2974,-1.2993,-1.3035,-1.304,-1.3011,-1.301,-1.3074,-1.308,-1.3087,-1.3133,-1.3109,-1.3113,-1.3115,-1.3226,-1.3227,-1.3228,0,0,0,0,0,0,-1.2872,-1.2882,-1.2966,-1.293,-1.2941,-1.2969,-1.299,-1.2995,-1.301,-1.3042,-1.3047,-1.3021,-1.3073,-1.3082,-1.3121,-1.3135,-1.3114,-1.3118,-1.3225,-1.3226,-1.3228,-1.3226,0,0,0,0,0,0,-1.2869,-1.2881,-1.2895,-1.293,-1.2942,-1.2998,-1.2991,-1.2997,-1.3016,-1.3016,-1.3052,-1.3058,-1.3073,-1.3116,-1.3124,-1.314,-1.312,-1.3224,-1.3226,-1.3227,-1.3225,-1.3227,-1.3229,0,0,0,0,0,-1.2865,-1.2893,-1.2896,-1.2905,-1.2961,-1.2999,-1.3006,-1.3023,-1.3017,-1.3031,-1.3052,-1.3056,-1.3133,-1.3119,-1.3129,-1.3146,-1.3223,-1.3225,-1.3227,-1.3224,-1.3227,-1.3229,0,0,0,0,0,0,-1.286,-1.2897,-1.2901,-1.2941,-1.2966,-1.3001,-1.302,-1.3025,-1.3054,-1.3053,-1.3073,-1.3081,-1.3119,-1.3137,-1.3122,-1.3185,-1.3177,-1.3182,-1.3171,-1.3174,-1.3177,-1.3171,-1.3123,0,0,0,0,0,-1.2863,-1.289,-1.2922,-1.2954,-1.2967,-1.2991,-1.3008,-1.3019,-1.3046,-1.3058,-1.3081,-1.3108,-1.3138,-1.3157,-1.3187,-1.3228,-1.3236,-1.3244,-1.3246,-1.3248,-1.3251,-1.3273,-1.3277,-1.3235,-1.3235,-1.3235,0,0,-1.287,-1.2894,-1.291,-1.2954,-1.2975,-1.3003,-1.3,-1.303,-1.3051,-1.3062,-1.31,-1.3118,-1.315,-1.319,-1.3209,-1.3206,-1.3265,-1.3251,-1.3252,-1.3254,-1.3276,-1.328,-1.3283,-1.3237,-1.3236,-1.3236,0,0,-1.2898,-1.2919,-1.2947,-1.2968,-1.3,-1.3016,-1.3022,-1.3056,-1.3068,-1.3106,-1.3115,-1.3141,-1.3192,-1.3214,-1.3232,-1.3268,-1.3273,-1.3277,-1.3288,-1.3309,-1.3313,-1.3316,-1.3328,-1.3332,-1.328,-1.328,-1.328,0,-1.2903,-1.2945,-1.2961,-1.2991,-1.3009,-1.302,-1.3049,-1.3069,-1.3109,-1.3122,-1.3118,-1.3182,-1.3205,-1.3249,-1.3258,-1.3272,-1.3281,-1.3272,-1.3311,-1.3314,-1.3317,-1.3329,-1.3333,-1.328,-1.328,-1.328,-1.328,0,-1.2949,-1.2978,-1.2998,-1.3034,-1.3056,-1.3085,-1.3106,-1.3126,-1.3134,-1.3151,-1.319,-1.3217,-1.3251,-1.3263,-1.3273,-1.3309,-1.3306,-1.3306,-1.3299,-1.3321,-1.3332,-1.3337,-1.3281,-1.3281,-1.3281,-1.3281,0,0,-1.2975,-1.302,-1.3027,-1.3043,-1.3079,-1.3102,-1.3132,-1.3165,-1.3181,-1.3208,-1.3233,-1.3277,-1.3277,-1.3297,-1.3309,-1.3328,-1.3353,-1.3326,-1.3327,-1.3329,-1.3395,-1.3393,-1.3398,-1.3358,-1.3358,-1.3359,-1.3392,0,-1.3005,-1.3057,-1.3073,-1.3117,-1.3144,-1.3155,-1.3181,-1.3205,-1.3222,-1.3247,-1.3266,-1.3296,-1.3294,-1.3306,-1.3326,-1.3346,-1.3367,-1.3344,-1.3381,-1.3382,-1.3372,-1.3404,-1.3403,-1.3432,-1.3396,-1.3397,-1.3397,0,-1.3048,-1.3075,-1.3121,-1.3152,-1.3164,-1.3187,-1.3218,-1.3243,-1.3271,-1.3282,-1.3304,-1.3315,-1.3347,-1.3338,-1.3383,-1.3367,-1.3383,-1.3396,-1.3397,-1.3401,-1.339,-1.3407,-1.3442,-1.3446,-1.3405,-1.3404,-1.3404,0,-1.3061,-1.3108,-1.3142,-1.3156,-1.3194,-1.3209,-1.3226,-1.3254,-1.3273,-1.33,-1.3313,-1.3344,-1.3361,-1.3386,-1.3405,-1.3397,-1.3447,-1.3441,-1.3457,-1.3456,-1.3466,-1.3465,-1.3503,-1.3478,-1.3478,-1.3478,-1.3478,0,-1.3093,-1.312,-1.3148,-1.3168,-1.32,-1.3218,-1.3249,-1.3266,-1.3291,-1.3315,-1.3327,-1.335,-1.3374,-1.34,-1.3416,-1.345,-1.3458,-1.3467,-1.3471,-1.3465,-1.3464,-1.3476,-1.3474,-1.3479,-1.3479,-1.3479,-1.3479,0,-1.3111,-1.3131,-1.3168,-1.3201,-1.3209,-1.3231,-1.3259,-1.328,-1.3297,-1.3327,-1.3336,-1.3362,-1.3394,-1.3415,-1.3456,-1.3466,-1.3503,-1.3507,-1.3493,-1.3494,-1.3509,-1.3507,-1.3555,-1.3562,-1.3533,-1.3533,-1.3534,0,-1.313,-1.3151,-1.3186,-1.3202,-1.3219,-1.3246,-1.3265,-1.3284,-1.3303,-1.3337,-1.3353,-1.3385,-1.3412,-1.3462,-1.3485,-1.3517,-1.3521,-1.3535,-1.3525,-1.3519,-1.352,-1.3518,-1.352,-1.3536,-1.3537,-1.3537,-1.3537,0,-1.3161,-1.3169,-1.3195,-1.3225,-1.3246,-1.3271,-1.3295,-1.3309,-1.3332,-1.3353,-1.3385,-1.3405,-1.3446,-1.3478,-1.3511,-1.3529,-1.3537,-1.354,-1.3545,-1.354,-1.353,-1.3534,-1.3496,-1.3539,-1.3538,-1.3538,-1.3538,-1.3538,-1.3179,-1.3198,-1.3225,-1.3254,-1.3274,-1.3297,-1.3317,-1.3336,-1.3362,-1.3396,-1.3407,-1.3439,-1.3468,-1.3513,-1.3532,-1.3558,-1.3557,-1.3565,-1.3566,-1.3568,-1.3567,-1.3527,-1.3564,-1.3564,-1.3564,-1.3564,-1.3564,0,-1.321,-1.3227,-1.3253,-1.3287,-1.3309,-1.3314,-1.3341,-1.336,-1.3388,-1.3413,-1.3439,-1.3475,-1.3506,-1.3531,-1.3563,-1.3579,-1.3584,-1.3587,-1.3586,-1.359,-1.3567,-1.3559,-1.3583,-1.3583,-1.3583,-1.3583,-1.3583,-1.3583,-1.3228,-1.326,-1.3272,-1.3314,-1.3332,-1.3363,-1.3378,-1.3399,-1.3419,-1.3459,-1.3484,-1.35,-1.3526,-1.3559,-1.3588,-1.3595,-1.3606,-1.3608,-1.3615,-1.3594,-1.3591,-1.3589,-1.3581,-1.361,-1.361,-1.3636,-1.3636,-1.3636]},{"header":{"parameterUnit":"m.s-1","parameterCategory":1,"la1":30.2991,"la2":30.254,"lo1":-89.0895,"lo2":-89.0444,"dy":0.0017,"dx":0.0017,"nx":28,"ny":28,"refTime":"2025-02-09T09:00:00:Z","depth":0,"parameterNumber":3,"parameterNumberName":"V-component_of_WINDS"},"data":[0,0,0,0,0,0,0,0,0,0,0,0,0,0,0,0,0,0,0,0,0,0,0,0,0,0,0,0,0,0,0,0,0,0,0,0,0,0,0,0,0,0,0,0,0,0,0,0,0,0,0,0,0,0,0,0,0,0,1.0827,1.0828,0,1.0983,1.0985,1.0987,1.1042,1.1041,1.1041,1.104,1.1201,1.1205,1.121,0,0,0,0,0,0,0,0,0,0,0,0,0,1.0577,1.0581,1.0827,1.0829,1.083,1.0983,1.0985,1.0987,1.1042,1.1041,1.1041,1.104,1.1199,1.1205,1.121,0,0,0,0,0,0,0,0,0,0,0,0,0,1.0705,1.0583,1.0826,1.0876,1.0882,1.0982,1.0985,1.0988,1.1042,1.1041,1.1041,1.104,1.1197,1.1204,1.1211,1.1273,0,0,1.1233,1.1236,0,0,0,0,0,0,0,0,1.0697,1.0714,1.0867,1.0873,1.088,1.0992,1.0956,1.1083,1.1043,1.0982,1.104,1.1039,1.1132,1.1144,1.1176,1.1281,1.1287,1.1234,1.1238,1.1241,1.1243,0,0,0,0,0,0,0,1.0688,1.0707,1.0889,1.0869,1.0877,1.0892,1.0909,1.098,1.106,1.0987,1.0991,1.1009,1.1135,1.1169,1.118,1.129,1.1234,1.124,1.1245,1.1247,1.1456,1.1457,0,0,0,0,0,0,1.0671,1.07,1.0884,1.0893,1.0785,1.0897,1.0916,1.0957,1.1059,1.1074,1.101,1.1011,1.1157,1.1171,1.1186,1.1267,1.1241,1.1248,1.1252,1.1455,1.1456,1.1458,0,0,0,0,0,0,1.0666,1.0687,1.0877,1.0798,1.0823,1.0902,1.0948,1.0961,1.0994,1.1076,1.1091,1.1029,1.1157,1.1176,1.1252,1.1273,1.1251,1.1258,1.1453,1.1455,1.1457,1.1428,0,0,0,0,0,0,1.0658,1.0685,1.0708,1.0798,1.0827,1.094,1.0949,1.0964,1.1006,1.101,1.1098,1.1112,1.1157,1.1241,1.1259,1.1283,1.1264,1.1452,1.1454,1.1456,1.1427,1.1429,1.143,0,0,0,0,0,1.0649,1.0693,1.0709,1.0731,1.0858,1.0941,1.0958,1.1009,1.1008,1.1033,1.1086,1.1109,1.1268,1.1248,1.1269,1.1295,1.1451,1.1454,1.1456,1.1427,1.1428,1.143,0,0,0,0,0,0,1.0604,1.0706,1.0725,1.0799,1.0861,1.095,1.0983,1.1009,1.1072,1.1072,1.1133,1.1153,1.1225,1.1267,1.1244,1.1362,1.1361,1.1368,1.1331,1.1333,1.1334,1.1323,1.127,0,0,0,0,0,1.0603,1.0661,1.0747,1.0805,1.0835,1.0903,1.0941,1.0976,1.1042,1.1069,1.1127,1.1191,1.1256,1.1297,1.136,1.1434,1.1455,1.1462,1.1463,1.1464,1.147,1.1514,1.1519,1.1467,1.1467,1.1467,0,0,1.0601,1.0664,1.0697,1.0797,1.0849,1.0909,1.0925,1.0987,1.1033,1.1078,1.1154,1.1199,1.1275,1.135,1.1386,1.1388,1.1489,1.1468,1.1467,1.1473,1.1517,1.1522,1.1527,1.1469,1.1468,1.1468,0,0,1.0628,1.0681,1.0736,1.0788,1.0866,1.0912,1.0925,1.1011,1.1043,1.112,1.1157,1.1212,1.1321,1.1374,1.1415,1.1464,1.1489,1.1483,1.1489,1.1532,1.1536,1.154,1.156,1.1566,1.1488,1.1488,1.1488,0,1.0616,1.0707,1.076,1.0822,1.0866,1.091,1.0967,1.1015,1.111,1.114,1.114,1.128,1.1334,1.1423,1.1436,1.1467,1.1485,1.1474,1.1531,1.1536,1.154,1.156,1.1566,1.1487,1.1487,1.1488,1.1488,0,1.0689,1.0752,1.0787,1.0878,1.0926,1.0984,1.1048,1.109,1.1121,1.1167,1.1246,1.1312,1.1391,1.1415,1.1444,1.151,1.1508,1.1519,1.1519,1.1543,1.1563,1.157,1.1486,1.1486,1.1486,1.1487,0,0,1.0692,1.0814,1.0826,1.0869,1.096,1.101,1.1071,1.1149,1.1184,1.1249,1.1303,1.1395,1.1406,1.1453,1.149,1.1527,1.1564,1.1534,1.1536,1.1538,1.1642,1.1635,1.1642,1.1581,1.1582,1.1584,1.1637,0,1.0732,1.0843,1.0894,1.0983,1.1043,1.1087,1.1141,1.1203,1.1248,1.1306,1.1355,1.1421,1.1429,1.1458,1.1497,1.1551,1.1586,1.1548,1.1633,1.1635,1.1614,1.1652,1.1644,1.169,1.1644,1.1645,1.1646,0,1.0794,1.086,1.0954,1.104,1.1067,1.1114,1.1191,1.1245,1.1317,1.1348,1.1401,1.1436,1.1503,1.1499,1.1593,1.1566,1.1604,1.1636,1.1639,1.165,1.1643,1.1665,1.1706,1.1714,1.1658,1.1657,1.1657,0,1.0789,1.0901,1.0973,1.1008,1.1109,1.1142,1.1186,1.1257,1.1301,1.1368,1.1397,1.1471,1.1511,1.1568,1.1623,1.1614,1.1713,1.1712,1.1741,1.174,1.176,1.1759,1.181,1.1782,1.1782,1.1782,1.1782,0,1.0829,1.0886,1.0972,1.1016,1.1082,1.114,1.1204,1.1251,1.1314,1.1369,1.1411,1.1462,1.1531,1.1591,1.1634,1.1707,1.1724,1.1752,1.1763,1.1749,1.1746,1.1775,1.1774,1.1784,1.1783,1.1783,1.1783,0,1.0835,1.0894,1.0976,1.1066,1.109,1.1134,1.1212,1.1257,1.1304,1.1374,1.1394,1.1468,1.1541,1.1601,1.1696,1.1726,1.1802,1.1814,1.1778,1.1784,1.1811,1.1808,1.1884,1.1898,1.1859,1.1859,1.1859,0,1.0857,1.0902,1.0997,1.1038,1.1081,1.1145,1.119,1.125,1.1296,1.1383,1.1418,1.1494,1.1558,1.1673,1.1736,1.181,1.1825,1.1846,1.1836,1.1822,1.1828,1.1825,1.1831,1.1847,1.1847,1.1848,1.1848,0,1.0892,1.092,1.0984,1.1059,1.1112,1.1174,1.1237,1.1268,1.1339,1.1389,1.1464,1.1514,1.1612,1.1688,1.1769,1.1815,1.1844,1.185,1.1861,1.1848,1.1826,1.1841,1.1782,1.1848,1.1848,1.1848,1.1848,1.1848,1.0908,1.0951,1.1025,1.1096,1.115,1.1208,1.1256,1.131,1.1374,1.1459,1.149,1.1568,1.1641,1.1752,1.1799,1.1861,1.1865,1.188,1.1884,1.1887,1.1887,1.1815,1.1876,1.1876,1.1876,1.1876,1.1876,0,1.0947,1.0997,1.1061,1.1149,1.1205,1.1227,1.1298,1.1344,1.1412,1.1477,1.154,1.1628,1.1702,1.1771,1.1849,1.1886,1.1901,1.1904,1.1903,1.1914,1.1878,1.1862,1.1891,1.1891,1.1891,1.1891,1.1891,1.1891,1.0973,1.1048,1.1084,1.1187,1.1237,1.1314,1.1353,1.1407,1.146,1.1556,1.1618,1.1663,1.1731,1.1815,1.1884,1.1903,1.193,1.193,1.1952,1.1918,1.1916,1.1914,1.1899,1.1935,1.1935,1.1983,1.1983,1.1984]}]]